Terug naar catalogus

STARLINK-3543

ActiefCommunicatieVLEO
NORAD 51716·PAYLOAD·🇺🇸 United States

Gelanceerd Feb 21, 2022 vanaf Cape Canaveral Space Force Station

Loading…

Volgende Passages (komende 24 uur)

TLE

VersSource: CelesTrak SupGP

Epoch: Sep 15, 2026, 02:31 UTC

1 51716C 22016C   26258.10534722 -.00015203  00000+0 -46135-3 0  2580
2 51716  53.1596 189.2228 0001398  84.3389  93.7208 15.33553571    17

Volg STARLINK-3543 in realtime met AllMySat

Download on the App Store